This is the latest recevied weather packets stored in our database for station/object WC4PEM-12. If no packets are shown the sender has not sent any weather packets the latest 10 day(s).
| Time | Temp. | Humidity | Pressure | Rain* | Wind** | Luminosity | Snow |
|---|---|---|---|---|---|---|---|
| 1778000575 | 29.44° C | 55% | 1015.9 hPa | 0 mm | - | - | - |
| 1778000313 | 29.44° C | 54% | 1015.9 hPa | 0 mm | - | - | - |
| 1777999075 | 29.44° C | 54% | 1015.9 hPa | 0 mm | - | - | - |
| 1777998901 | 29.44° C | 54% | 1016 hPa | 0 mm | - | - | - |
| 1777998775 | 29.44° C | 54% | 1016 hPa | 0 mm | - | - | - |
| 1777998475 | 29.44° C | 54% | 1015.7 hPa | 0 mm | - | - | - |
| 1777998274 | 29.44° C | 56% | 1015.9 hPa | 0 mm | - | - | - |
| 1777998175 | 29.44° C | 56% | 1015.9 hPa | 0 mm | - | - | - |
| 1777997875 | 29.44° C | 56% | 1015.9 hPa | 0 mm | - | - | - |
| 1777997705 | 29.44° C | 55% | 1015.9 hPa | 0 mm | - | - | - |
| 1777997275 | 28.89° C | 57% | 1016.2 hPa | 0 mm | - | - | - |
| 1777997093 | 28.89° C | 56% | 1016.1 hPa | 0 mm | - | - | - |
| 1777996975 | 28.89° C | 56% | 1016.1 hPa | 0 mm | - | - | - |
| 1777996675 | 28.89° C | 57% | 1016.1 hPa | 0 mm | - | - | - |
| 1777995475 | 27.78° C | 58% | 1016.1 hPa | 0 mm | - | - | - |
| 1777995175 | 28.33° C | 58% | 1016.2 hPa | 0 mm | - | - | - |
| 1777994875 | 28.33° C | 58% | 1016.2 hPa | 0 mm | - | - | - |
| 1777994706 | 27.78° C | 60% | 1016.1 hPa | 0 mm | - | - | - |
| 1777994670 | 27.78° C | 62% | 1016.1 hPa | 0 mm | - | - | - |
| 1777994575 | 27.78° C | 60% | 1016.1 hPa | 0 mm | - | - | - |
| 1777994275 | 27.78° C | 62% | 1016.1 hPa | 0 mm | - | - | - |
| 1777993975 | 27.22° C | 62% | 1016 hPa | 0 mm | - | - | - |
| 1777993675 | 27.22° C | 62% | 1015.9 hPa | 0 mm | - | - | - |
| 1777993375 | 27.22° C | 64% | 1016.2 hPa | 0 mm | - | - | - |
| 1777993075 | 27.22° C | 62% | 1016.3 hPa | 0 mm | - | - | - |
* Rain latest hour (hover to see other rain measurements)
** Current wind speed in m/s (hover to see current wind gust speed)